KC3ECO Weather Reports


time (UTC)temp
C
wind
direction
speed
KPH
gust
KPH
rain 1hr
cm
rain 24hr
cm
rain mn
cm
humidity
%
barometer
mb
20260505004018 18 323 1.6 4.8 0.00 0.05 0.05 56 1010.1
20260505003038 18 273 3.2 6.4 0.00 0.05 0.05 55 1010.1
20260505002018 18 252 1.6 6.4 0.00 0.05 0.05 55 1010.1
20260505001016 18 278 3.2 6.4 0.00 0.05 0.05 54 1010.0
20260505000015 18 244 1.6 4.8 0.00 0.05 0.05 53 1010.0
20260504235018 19 289 4.8 12.9 0.00 0.05 0.05 52 1010.1
20260504234016 19 263 4.8 11.3 0.00 0.05 0.05 50 1010.1
20260504233016 20 274 4.8 11.3 0.00 0.05 0.05 50 1010.1
20260504232016 20 252 3.2 12.9 0.00 0.05 0.05 48 1010.0
20260504231016 20 260 6.4 16.1 0.00 0.05 0.05 47 1010.1
20260504230017 21 281 3.2 9.7 0.00 0.05 0.05 47 1010.1
20260504225016 21 266 4.8 11.3 0.00 0.05 0.05 46 1010.0
20260504224016 21 171 3.2 19.3 0.00 0.05 0.05 44 1010.0
20260504223017 21 271 4.8 14.5 0.00 0.05 0.05 44 1010.2
20260504222017 22 271 6.4 14.5 0.00 0.05 0.05 43 1010.1
20260504221017 22 134 6.4 24.1 0.00 0.05 0.05 42 1010.1
20260504220017 22 265 3.2 9.7 0.00 0.05 0.05 43 1010.1
20260504215017 22 263 4.8 11.3 0.00 0.05 0.05 41 1010.2
20260504214018 22 264 6.4 19.3 0.00 0.05 0.05 42 1010.3
20260504213018 22 267 4.8 14.5 0.00 0.05 0.05 41 1010.3
20260504212017 22 261 6.4 12.9 0.00 0.05 0.05 43 1010.2
20260504211018 22 224 4.8 14.5 0.00 0.05 0.05 41 1010.3
20260504210038 22 270 6.4 14.5 0.00 0.05 0.05 41 1010.3
20260504205018 22 244 4.8 12.9 0.00 0.05 0.05 41 1010.5
20260504204018 22 254 4.8 11.3 0.00 0.05 0.05 43 1010.5
20260504203018 22 264 4.8 9.7 0.00 0.08 0.05 42 1010.5
20260504202020 22 123 6.4 17.7 0.00 0.08 0.05 42 1010.6
20260504201056 22 258 6.4 16.1 0.00 0.08 0.05 42 1010.8
20260504200016 22 268 6.4 12.9 0.00 0.08 0.05 43 1011.0
20260504195056 22 211 6.4 14.5 0.00 0.08 0.05 42 1011.1
20260504194016 22 276 8.0 17.7 0.00 0.08 0.05 42 1011.2
20260504193016 22 86 6.4 17.7 0.00 0.08 0.05 43 1011.4
20260504192016 22 115 4.8 14.5 0.00 0.08 0.05 42 1011.6
20260504191016 22 265 4.8 12.9 0.00 0.08 0.05 42 1011.8
20260504190016 22 174 6.4 16.1 0.03 0.08 0.05 40 1011.8
20260504185017 22 262 6.4 12.9 0.03 0.08 0.05 42 1012.0
20260504184041 22 281 8.0 19.3 0.03 0.08 0.05 44 1012.0
20260504183017 22 299 4.8 14.5 0.03 0.08 0.05 44 1012.1
20260504182017 22 255 4.8 11.3 0.03 0.08 0.05 44 1012.1
20260504181017 21 124 4.8 14.5 0.03 0.08 0.05 43 1012.1
20260504180017 21 283 4.8 12.9 0.00 0.05 0.03 45 1012.5
20260504175017 21 124 6.4 12.9 0.00 0.05 0.03 44 1012.6
20260504174018 21 267 6.4 14.5 0.00 0.05 0.03 45 1012.7
20260504173017 21 276 4.8 12.9 0.00 0.05 0.03 46 1012.9
20260504172017 20 79 6.4 16.1 0.00 0.05 0.03 45 1013.0
20260504171018 21 272 4.8 11.3 0.00 0.05 0.03 45 1013.1
20260504151037 18 265 4.8 9.7 0.03 0.05 0.03 45 1014.6
20260504141017 16 278 3.2 8.0 0.00 0.03 0.00 53 1015.0
20260504081017 3 354 1.6 3.2 0.00 0.03 0.00 87 1014.8
20260504045038 3 45 1.6 3.2 0.00 0.03 0.00 83 1014.9
20260504044016 4 268 3.2 4.8 0.00 0.03 0.00 83 1014.9
20260504043036 4 87 1.6 4.8 0.00 0.03 0.00 82 1015.1
20260504042016 4 84 1.6 3.2 0.00 0.03 0.00 82 1014.9
20260504041016 4 359 1.6 4.8 0.00 0.03 0.00 81 1014.8
20260504040016 4 95 1.6 3.2 0.00 0.03 0.00 80 1014.8
20260504035017 4 97 1.6 3.2 0.00 0.03 0.03 81 1014.7
20260504034016 5 251 1.6 3.2 0.00 0.03 0.03 80 1014.6
20260504033017 5 112 1.6 3.2 0.00 0.03 0.03 79 1014.5
20260504032017 5 98 1.6 3.2 0.00 0.03 0.03 77 1014.5
20260504031017 5 122 1.6 3.2 0.00 0.03 0.03 76 1014.4
20260504030017 5 107 1.6 3.2 0.00 0.03 0.03 77 1014.4
20260504025017 5 89 1.6 3.2 0.00 0.03 0.03 76 1014.4
20260504024017 6 114 1.6 3.2 0.00 0.03 0.03 75 1014.3
20260504023017 6 106 1.6 3.2 0.00 0.03 0.03 73 1014.3
20260504022018 6 112 1.6 3.2 0.00 0.03 0.03 74 1014.3
20260504021018 6 321 1.6 3.2 0.00 0.03 0.03 73 1014.3
20260504020018 6 110 1.6 3.2 0.00 0.03 0.03 71 1014.3
20260504015018 7 62 1.6 3.2 0.00 0.03 0.03 70 1014.2
20260504014018 7 61 1.6 3.2 0.00 0.03 0.03 68 1014.2
20260504013018 7 35 1.6 3.2 0.00 0.03 0.03 69 1014.0
20260504012019 7 358 1.6 3.2 0.00 0.03 0.03 65 1014.0
20260504011017 8 115 3.2 6.4 0.00 0.03 0.03 65 1013.9
20260504010018 8 120 3.2 8.0 0.00 0.03 0.03 65 1013.8
20260504005016 8 101 3.2 9.7 0.00 0.03 0.03 63 1013.8